Showing default

FFLY-3, 65319

Orbit data source: Space-Track

FFLY-3, 65319 is a payload satellite owned by Pixxel (US) in SSO that was launched on Tue, 26 Aug 2025 UTC via an FALCON 9 launch vehicle from the Air Force Western Test Range (AFWTR). Payload-class satellites include a variety of spacecraft equipped with specific instruments for various scientific and technological missions. These include communications satellites like Starlink; space stations such as the ISS; scientific satellites like the Hubble; Earth observation satellites from companies like Planet Labs, Umbra, and HawkEye 360; GPS; miniature CubeSats for education and research; and military/defense satellites.

Loading next visibility...
Identifier
65319, 2025-188E
Orbit
SSO
Country
Flag of USUS
Related business
Manufacturer
Pixxel
Mission
Operational Commercial Imaging
Bus & Motor
FIREFLY, Unknown motor
Mass
60 kg wet, 60 kg dry
Launch date (UTC)
2025-08-26 (8 months ago)
Launch vehicle
FALCON 9
Launch site
Air Force Western Test Range (AFWTR)
Object type
Payload
Rocket body
Debris
Shape & HBR
Box + 2 Pan, 14.5 m
Radar Cross Section
0.338 m², Medium (>0.1 m² and < 1m²)

Expand to show TLE details & history
Last TLE update: 11 hours ago

TLE from 11 hours ago
0 FFLY-3
1 65319U 25188E   26124.15835125  .00001730  00000-0  17252-3 0  9994
2 65319  97.7328 200.0434 0006330 250.5887 109.4648 14.92826404 37341
Epoch: 2026-05-04T03:48Z
TLE epoch observation values (Epoch: 2026-05-04T03:48:01.548Z)
Latitude
-0.00011°
Longitude
-79.01459°
Altitude
593.644 km
Speed
7.562 km/s
True Right ascension
13h 20m 10s
True Declination
0° 00' 00"
Sunlit
Object was in full shadow at epoch
Visualization orbit readout
Latitude
Unknown
Longitude
Unknown
Altitude
Unknown
Speed
Unknown
Apparent Right ascension
Unknown
Apparent Declination
Unknown
Sunlit
N/A
Visualization observer readout
Local Sidereal Time
22:49:11
Azimuth
Unknown
Elevation
Unknown
Doppler factor
Unknown
Orbital elements
Apogee altitude
590.552 km
Perigee altitude
581.735 km
Semi-major axis
6,964.281 km
Eccentricity
0.00063
Inclination
97.7328°
RAAN
200.0434°
Arg. of periapsis
250.5887°
True anomaly
109.53317°
Mean anomaly
109.4648°
Eccentric anomaly
109.49899°
Mean motion
3.73447 °/min
Orbital period
96.4 mins
BSTAR
0.00017252
Loading maneuver chart data...
Computing Atmospheric mass density...
Loading historical data...
Loading historical data...
Loading historical data...
Loading historical data...
Loading historical data...
Loading historical data...
Loading historical data...

Documentation

Showing up to 5 results
|